Temp
68 68 67 67 66 65 65 66 67 67 68 69 68 68 67 65 66 65 65 64 63 62
68 67 67 67 67 66 66 68 68 69 68 68 68 68 67 65 67 65 64 64 64 62
70 68 68 67 67 66 67 67 68 68 68 68 68 67 66 65 65 64 64 63 63 62
69 69 68 67 67 67 67 67 67 67 67 67 67 67 66 65 65 65 64 63 63 63
70 68 67 67 68 67 67 67 67 67 66 66 67 66 65 65 66 65 63 63 61 62
68 68 67 67 67 67 67 67 67 66 66 66 66 66 66 65 65 64 64 63 61 62
69 69 67 67 68 67 67 66 66 66 67 66 66 66 66 65 64 63 64 64 63 62
71 70 68 67 69 67 66 66 66 66 66 66 66 70 66 65 64 63 63 63 63 62
70 68 69 71 68 66 66 66 66 66 66 66 69 67 65 66 63 63 61 61 61 61
68 67 71 72 67 67 66 65 66 66 65 65 65 64 63 66 62 61 60 59 59 60
69 69 72 69 67 67 65 66 67 65 65 64 65 62 61 63 61 59 59 59 59 59
71 71 70 67 66 67 65 64 64 64 63 62 63 61 59 60 59 58 58 58 59 59
72 71 69 68 66 69 65 65 64 63 63 61 61 60 57 58 58 56 58 57 58 58
71 71 71 69 66 65 64 61 61 62 63 63 61 60 56 55 57 57 56 55 58 54
MSLP
1014.77 1015.22 1015.46 1015.86 1016.13 1016.37 1016.57 1016.48 1016.46 1016.48 1016.35 1016.34 1016.45 1016.55 1016.55 1016.74 1016.84 1016.96 1017.07 1017.19 1017.34 1017.45
1014.51 1014.97 1015.32 1015.55 1015.81 1016.06 1016.17 1016.25 1016.25 1016.03 1016.27 1016.25 1016.25 1016.25 1016.44 1016.48 1016.55 1016.67 1016.77 1016.83 1016.98 1017.14
1014.01 1014.33 1014.95 1015.21 1015.51 1015.66 1015.86 1015.98 1015.99 1016.09 1016.11 1016.15 1016.16 1016.20 1016.22 1016.28 1016.30 1016.40 1016.45 1016.55 1016.71 1016.78
1013.51 1013.92 1014.36 1014.93 1015.16 1015.27 1015.53 1015.74 1015.78 1015.90 1015.91 1015.89 1015.89 1015.95 1016.13 1016.09 1016.00 1016.14 1016.21 1016.27 1016.36 1016.31
1013.00 1013.59 1014.04 1014.40 1014.62 1014.88 1015.18 1015.40 1015.39 1015.50 1015.58 1015.54 1015.53 1015.44 1015.52 1015.69 1015.90 1015.95 1016.00 1016.01 1016.15 1015.87
1012.67 1013.05 1013.45 1013.76 1014.08 1014.41 1014.65 1014.85 1014.98 1015.16 1015.26 1015.30 1015.17 1015.12 1014.96 1014.94 1014.93 1015.26 1015.35 1015.34 1015.51 1015.34
1011.86 1012.41 1012.81 1013.10 1013.59 1013.85 1014.11 1014.38 1014.68 1014.72 1014.71 1014.64 1014.60 1014.76 1014.69 1014.62 1014.62 1014.64 1014.60 1014.50 1014.70 1014.70
1011.45 1011.85 1012.29 1012.69 1012.98 1013.20 1013.54 1013.84 1014.06 1014.27 1014.33 1014.30 1014.30 1014.12 1014.26 1014.32 1014.20 1014.24 1014.28 1014.23 1014.20 1014.11
1011.16 1011.74 1011.93 1012.04 1012.38 1012.73 1012.91 1013.24 1013.67 1013.81 1013.87 1013.95 1013.82 1013.68 1013.59 1013.84 1013.90 1013.95 1013.90 1013.92 1013.54 1013.48
1010.60 1011.10 1011.32 1011.32 1011.90 1012.24 1012.50 1012.78 1013.07 1013.10 1013.26 1013.41 1013.40 1013.31 1013.35 1013.38 1013.53 1013.63 1013.44 1013.56 1013.64 1013.34
1009.67 1010.32 1010.69 1011.05 1011.43 1011.61 1011.87 1012.38 1012.72 1012.77 1012.67 1012.93 1012.82 1012.83 1012.99 1013.00 1013.26 1013.34 1013.28 1013.24 1013.25 1013.13
1008.94 1009.48 1010.12 1010.65 1010.69 1010.91 1011.59 1011.97 1012.10 1012.46 1013.10 1013.17 1012.94 1012.34 1012.32 1012.84 1013.04 1013.18 1013.07 1013.04 1012.99 1012.62
1008.07 1008.91 1009.50 1009.68 1009.85 1010.31 1011.04 1011.58 1012.23 1012.74 1012.43 1012.21 1012.42 1012.48 1012.06 1012.47 1012.88 1012.99 1013.09 1012.87 1012.72 1012.43
1008.66 1008.64 1008.48 1009.00 1009.62 1010.24 1010.79 1011.57 1012.02 1012.58 1012.37 1012.12 1011.98 1012.21 1011.89 1012.57 1012.98 1013.05 1012.96 1012.90 1012.77 1012.53
Wind_Speed
8 5 4 4 3 3 3 4 4 4 4 3 3 3 3 2 3 3 4 5 4 2
7 7 6 6 5 4 4 4 6 6 5 4 3 2 1 2 3 1 3 5 5 3
8 8 7 6 7 6 4 4 5 5 4 4 4 4 2 2 4 5 4 4 5 4
8 8 8 7 7 6 4 5 4 5 5 5 5 5 4 5 6 4 4 4 6 7
9 8 8 7 7 7 7 5 6 6 6 6 6 6 5 5 5 5 6 6 6 8
9 9 9 8 7 7 7 7 6 6 6 6 7 6 6 6 6 6 7 7 6 7
11 10 9 8 8 8 7 7 7 7 7 7 7 6 7 6 6 7 7 6 6 7
12 9 8 8 9 8 7 7 7 7 7 7 6 5 7 6 5 5 5 6 6 6
8 8 10 11 10 8 8 7 6 7 7 7 4 7 9 7 6 5 5 6 7 6
10 10 13 12 9 10 9 7 8 7 7 7 7 9 11 9 5 5 6 5 5 6
13 14 13 10 10 9 5 8 8 7 7 6 6 9 9 7 5 5 4 3 5 6
14 15 11 11 10 8 5 5 6 3 5 4 7 8 7 6 3 4 5 5 6 5
13 11 12 12 10 7 4 4 4 1 3 5 6 8 7 6 2 1 3 5 5 2
4 13 13 9 5 5 5 7 5 4 6 2 5 7 7 5 1 2 2 3 3 3
Wind_Direction
169 184 172 178 164 162 180 176 176 186 187 204 255 296 295 244 252 189 192 176 191 178
170 163 160 166 165 176 181 177 179 186 188 206 227 254 293 255 228 180 186 198 188 190
173 163 172 168 180 176 200 208 195 200 205 215 223 243 249 237 236 205 218 207 204 203
180 179 166 179 187 192 203 220 208 221 225 231 237 253 263 265 250 240 243 222 217 225
174 176 175 185 190 193 205 205 205 213 222 231 235 231 228 244 254 240 245 243 234 236
181 179 182 185 189 193 200 216 222 221 233 242 241 244 242 236 238 231 233 233 232 238
181 184 178 177 189 194 200 210 220 231 234 233 243 249 253 249 245 241 241 244 232 235
191 176 176 183 197 201 204 210 216 226 237 244 241 242 239 237 221 230 259 270 260 244
179 179 197 198 203 202 213 213 219 229 236 250 250 256 207 198 217 231 235 255 263 261
187 201 204 203 197 209 214 206 221 226 219 237 244 251 232 214 213 229 242 271 292 290
184 210 207 200 207 212 200 212 221 225 224 225 248 244 238 227 232 267 287 280 276 275
191 202 197 207 206 210 204 214 219 238 275 263 280 255 242 194 227 263 298 296 287 281
200 200 203 208 198 200 191 216 91 100 231 260 281 279 219 195 190 275 280 289 299 318
224 211 206 194 163 146 157 115 92 340 281 280 232 238 224 181 171 249 292 297 291 245